Location: Albany
(35.0170°S, 117.8920°E)
Time: 21:53:26
(UTC+08:00)

Transit 2A Rocket - Visible Passes

Search period start: 25 January 2021 00:00
Search period end: 04 February 2021 00:00
Orbit: 592 x 910 km, 66.7° (Epoch: 25 January)

Date Brightness Start Highest point End Pass type
(mag) Time Alt. Az. Time Alt. Az. Time Alt. Az.
25 Jan 6.9 00:51:47 25° SSW 00:51:47 25° SSW 00:54:57 10° S visible
26 Jan 6.8 00:09:59 28° S 00:09:59 28° S 00:12:44 10° SSE visible
26 Jan 6.9 23:28:08 24° SSE 23:28:08 24° SSE 23:30:13 10° SSE visible
27 Jan 7.5 01:07:59 12° SW 01:08:22 13° SW 01:10:39 10° SSW visible
27 Jan 7.1 22:46:12 17° SE 22:46:12 17° SE 22:47:25 10° SE visible
28 Jan 7.1 00:26:04 20° SW 00:26:04 20° SW 00:29:19 10° S visible
28 Jan 6.8 23:44:04 28° SSW 23:44:04 28° SSW 23:47:18 10° S visible
29 Jan 6.5 23:01:59 32° S 23:01:59 32° S 23:04:58 10° SSE visible
30 Jan 6.4 22:19:47 28° SE 22:19:47 28° SE 22:22:22 10° SSE visible
30 Jan 7.4 23:59:37 15° SW 00:00:19 15° SW 00:03:26 10° S visible
31 Jan 6.6 21:37:26 21° SE 21:37:26 21° SE 21:39:26 10° SE visible
31 Jan 6.9 23:17:16 25° SW 23:17:18 25° SW 23:21:45 10° S visible
01 Feb 6.9 20:54:52 14° ESE 20:54:52 14° ESE 20:55:58 10° ESE visible
01 Feb 6.0 22:34:40 43° SW 22:34:40 43° SW 22:39:36 10° SSE visible
02 Feb 4.9 21:51:45 79° WSW 21:51:45 79° WSW 21:57:10 10° SSE visible
02 Feb 7.9 23:33:55 10° WSW 23:35:24 11° SW 23:36:55 10° SSW visible
03 Feb 4.9 21:08:08 46° NNE 21:09:13 56° ENE 21:14:28 10° SE visible
03 Feb 7.5 22:48:46 10° W 22:52:17 18° SW 22:56:01 10° S visible
